{"data":{"norad_id":44324,"epoch":"2026-09-20T05:46:55.970112Z","epoch_age_seconds":80678,"freshness":"FRESH","line1":"1 44324U 19033C   26263.24092558  .00000629  00000+0  66555-4 0  9994","line2":"2 44324  97.7599 269.3882 0001497  90.1378 270.0013 14.92591257396266","mean_motion":14.92591257,"eccentricity":0.0001497,"inclination_deg":97.7599,"raan_deg":269.3882,"arg_perigee_deg":90.1378,"mean_anomaly_deg":270.0013,"bstar":6.6555e-5,"rev_number":39626,"period_min":96.476513127532,"perigee_km":588.81620732389,"apogee_km":590.90242542101,"semimajor_km":6967.9963163725,"source":"CELESTRAK","updated_at":"2026-09-20T09:00:14.459651Z"}}